KUIPER-00119 (65155 NORAD) Tracking and Keplerian Element Data

This shows tracking and keplerian element data for the satellite.

Feedback or suggestion? Click here.




ElementValue
Catalog65155
NameKUIPER-00119
Epoch Orbit2103
Epoch Day354.15556658
Epoch Year2025
RAAN154.8678
Inclination51.8989
Eccentricity0.0008037
Argument of Perigee213.3471
Mean Anonmoly146.6986
Mean Motion14.79915436
Decay Rate1.922E-05
L11 65155U 25171Z 25354.15556658 .00001922 00000+0 28133-3 0 9991
L22 65155 51.8989 154.8678 0008037 213.3471 146.6986 14.79915436 21037



Live tracking and technical data element details for KUIPER-00119 (NORAD 65155). KUIPER-00119 can be tracked NOW for your location showing map with azimuth and elevation plus other details from your city location.







IsCatalogInMostPopularTable: catalog: 65155, numindb: 8
Update: records affected: 1



GetName: 65155 KUIPER-00119

Hit Count: updated at: Tue, 21 Apr 2026 19:19:01 GMT